Location: Most
(50.5330°N, 13.6500°E)
Time: 12:40:48
(UTC+01:00)

N. Korean satellite - Pass Details

Date: 27 October 2021
Orbit: 446 x 495 km, 97.3° (Epoch: 06 December)

Event Time Altitude Azimuth Distance (km) Brightness Sun altitude
Rises 06:07:06 0° 17° (NNE) 2,598 10.5 -16.6°
Reaches altitude 10° 06:09:16 10° 24° (NNE) 1,706 9.6 -16.2°
Maximum altitude 06:12:49 46° 99° (E) 674 7.7 -15.7°
Drops below altitude 10° 06:16:18 10° 174° (S) 1,674 9.4 -15.1°
Sets 06:18:24 0° 180° (S) 2,542 10.3 -14.8°
